Regional Weather Roundup
Issued by NWS Kansas City/Pleasant Hill, MO

Home | Current Version | Previous Version | Text Only | Print | Product List | Glossary On
Versions: 1 2 3 4 5 6 7 8 9 10 11 12 13 14 15 16 17 18 19 20 21 22 23 24 25 26 27 28 29 30 31 32 33 34 35 36 37 38 39 40 41 42 43 44 45 46 47 48 49 50
000
ASUS43 KEAX 051511
RWREAX

WEATHER ROUNDUP FOR EASTERN KANSAS AND NORTHWEST MISSOURI
NATIONAL WEATHER SERVICE KANSAS CITY/PLEASANT HILL MO
1000 AM CDT SUN JUL 05 2015

KSZ040-057-103>105-MOZ028-029-037-043-051600-
...KANSAS CITY METROPOLITAN AREA...

CITY           SKY/WX    TMP DP  RH WIND       PRES   REMARKS
K.C. INTL      PTSUNNY   78  71  79 S10       30.00F
K.C. DOWNTOWN  MOSUNNY   81  71  71 S6        29.98F
LEES SUMMIT    MOSUNNY   79  70  74 S8        30.01F
OLATHE - IXD   MOSUNNY   80  71  74 S10       30.00F
OLATHE - OJC   MOSUNNY   80  71  74 S10       30.00F
LAWRENCE       MOSUNNY   79  70  74 SE8       29.98F

$$

MOZ001>008-011>017-020>025-030>033-038>040-044>046-053-054-051600-
...NORTHERN AND CENTRAL MISSOURI...

CITY           SKY/WX    TMP DP  RH WIND       PRES   REMARKS
ST. JOSEPH     PTSUNNY   78  70  76 S8        29.98F
MOSBY          SUNNY     77  70  78 S6        30.00F
HARRISONVILLE  MOSUNNY   82  72  69 S6        30.03F
WARRENSBURG    MOSUNNY   79  70  73 S6        30.01F
WHITEMAN AFB   MOSUNNY   80  73  80 S9        30.02S
CLINTON        MOSUNNY   81  73  78 S6        30.03S
SEDALIA        SUNNY     81  72  74 S8        30.04F
WARSAW         FAIR      81  73  78 CALM      30.04S
CHILLICOTHE      N/A     78  71  79 S7        30.02S
KIRKSVILLE     SUNNY     78  70  76 S8        30.04F

$$

MOZ041-047>049-056>058-063>065-088>090-097-051600-
...EASTERN AND SOUTHERN MISSOURI...

CITY           SKY/WX    TMP DP  RH WIND       PRES   REMARKS
ST. LOUIS INTL MOSUNNY   81  67  62 SW6       30.08S
SPIRIT OF STL  SUNNY     79  70  74 CALM      30.06S
COLUMBIA       MOSUNNY   78  72  81 S9        30.05F
JEFFERSON CITY PTSUNNY   75  69  81 S9        30.05F
MEXICO         SUNNY     79  75  89 S7        30.06S
ROLLA          MOSUNNY   74  69  85 S12       30.07R
LEBANON        PTSUNNY   75  70  83 S7        30.07F
OSAGE BEACH    CLOUDY    75  70  83 S8        30.05F
SPRINGFIELD    CLOUDY    77  71  82 S8        30.05F
BRANSON        CLOUDY    73  72  94 E6        30.09R
JOPLIN         SUNNY     82  72  71 S9        30.03S
WEST PLAINS    CLOUDY    74  68  81 SW5       30.10R
MALDEN         PTSUNNY   75  73  94 CALM      30.07F

$$

IAZ060-094-KSZ022-034>040-054-083-096-NEZ052-066-093-051600-
...KANSAS...SOUTHEAST NEBRASKA AND IOWA...

CITY           SKY/WX    TMP DP  RH WIND       PRES   REMARKS
TOPEKA         PTSUNNY   80  71  74 SE8       29.97S
MANHATTAN      PTSUNNY   81  71  71 S12G22    29.93R
EMPORIA        MOSUNNY   81  70  69 S22G28    29.96F
CHANUTE        MOSUNNY   81  71  71 S16       30.00S
WICHITA        MOSUNNY   83  70  64 S17G23    29.95R
OMAHA          CLOUDY    71  65  81 SE8       29.95R
LINCOLN        CLOUDY    75  69  81 S9        29.92F
FALLS CITY     CLOUDY    75  69  81 SE13      29.94F
LAMONI         PTSUNNY   76  69  79 S8        30.01S
DES MOINES     CLOUDY    75  66  73 S7        30.00R

$$



USA.gov is the U.S. government's official web portal to all federal, state and local government web resources and services.